Change the Weather History Date:

Sunday, February 17, 2013

  Actual Average (KMRB) Record (KMRB)
Temperature  
Mean Temperature 24 °F 34 °F  
Max Temperature 28 °F 44 °F 71 °F (1976)
Min Temperature 21 °F 25 °F -2 °F (1963)
Degree Days  
Heating Degree Days 40 31  
Month to date heating degree days 549  
Since 1 July heating degree days 3632  
Cooling Degree Days 0 0  
Month to date cooling degree days 0  
Year to date cooling degree days 0  
Moisture  
Dew Point 13 °F    
Average Humidity 63    
Maximum Humidity 93    
Minimum Humidity 47    
Precipitation  
Precipitation 0.00 in 0.08 in 1.22 in (1982)
Month to date precipitation 1.39  
Year to date precipitation 3.83  
Sea Level Pressure  
Sea Level Pressure 30.05 in    
Wind  
Wind Speed 8 mph (WNW)    
Max Wind Speed 26 mph    
Max Gust Speed 32 mph    
Visibility 9 miles    
Events      
T = Trace of Precipitation, MM = Missing Value Source: NWS Daily Summary

Daily Weather History Graph

Daily Weather History Graph

Search for Another Location

Airport or City:

Trip Planner

Search our weather history database for the weather conditions in past years. The results will help you decide how hot, cold, wet, or windy it might be!

Date:

Astronomy

Feb. 17, 2013 Rise Set
Actual Time 7:04 AM EST 5:54 PM EST
Civil Twilight 6:37 AM EST 6:21 PM EST
Nautical Twilight 6:05 AM EST 6:53 PM EST
Astronomical Twilight 5:34 AM EST 7:24 PM EST
Moon 10:57 AM EST (2/17) 12:46 AM EST (2/17)
Length of Visible Light 11h 44m
Length of Day
10h 49m
Waxing Crescent, 49% of the Moon is Illuminated
Feb 17
Waxing Crescent
Feb 17
First Quarter
Feb 25
Full
Mar 4
Last Quarter
Mar 11
New

Hourly Weather History & Observations

Time (EST) Temp. Windchill Dew Point Humidity Pressure Visibility Wind Dir Wind Speed Gust Speed Precip Events Conditions
12:18 AM 26.6 °F 20.0 °F 17.6 °F 69% 29.93 in 10.0 mi NNW 5.8 mph - N/A   Clear
12:38 AM 26.6 °F 22.6 °F 17.6 °F 69% 29.92 in 10.0 mi North 3.5 mph - N/A   Scattered Clouds
12:58 AM 26.6 °F 22.6 °F 17.6 °F 69% 29.92 in 10.0 mi North 3.5 mph - N/A   Mostly Cloudy
1:18 AM 26.6 °F 22.6 °F 17.6 °F 69% 29.92 in 10.0 mi NNW 3.5 mph - N/A   Scattered Clouds
1:38 AM 26.6 °F - 17.6 °F 69% 29.92 in 10.0 mi Calm Calm - N/A   Mostly Cloudy
1:58 AM 26.6 °F - 17.6 °F 69% 29.92 in 10.0 mi Calm Calm - N/A   Mostly Cloudy
2:18 AM 26.6 °F - 19.4 °F 74% 29.92 in 10.0 mi Calm Calm - N/A   Mostly Cloudy
2:38 AM 24.8 °F - 19.4 °F 80% 29.92 in 10.0 mi Calm Calm - N/A   Overcast
2:58 AM 24.8 °F - 19.4 °F 80% 29.92 in 10.0 mi Calm Calm - N/A   Mostly Cloudy
3:18 AM 24.8 °F 19.1 °F 19.4 °F 80% 29.91 in 10.0 mi North 4.6 mph - N/A   Scattered Clouds
3:38 AM 24.8 °F 20.5 °F 19.4 °F 80% 29.92 in 10.0 mi WNW 3.5 mph - N/A   Scattered Clouds
3:58 AM 24.8 °F 15.3 °F 17.6 °F 74% 29.92 in 10.0 mi NW 9.2 mph - N/A   Clear
4:18 AM 24.8 °F 15.3 °F 14.0 °F 64% 29.92 in 10.0 mi West 9.2 mph - N/A   Clear
4:38 AM 24.8 °F 13.4 °F 14.0 °F 64% 29.92 in 10.0 mi West 12.7 mph 20.7 mph N/A   Clear
4:58 AM 24.8 °F 16.1 °F 14.0 °F 64% 29.93 in 10.0 mi West 8.1 mph - N/A   Clear
5:18 AM 24.8 °F 15.3 °F 14.0 °F 64% 29.93 in 10.0 mi West 9.2 mph 18.4 mph N/A   Clear
5:38 AM 23.0 °F 15.8 °F 14.0 °F 68% 29.94 in 10.0 mi WNW 5.8 mph 18.4 mph N/A   Clear
5:58 AM 23.0 °F 13.9 °F 14.0 °F 68% 29.94 in 10.0 mi WNW 8.1 mph - N/A   Clear
6:18 AM 24.8 °F 13.4 °F 14.0 °F 64% 29.95 in 10.0 mi NW 12.7 mph - N/A   Mostly Cloudy
6:38 AM 23.0 °F 13.1 °F 17.6 °F 80% 29.96 in 4.0 mi NW 9.2 mph - N/A   Overcast
6:58 AM 23.0 °F 15.8 °F 19.4 °F 86% 29.97 in 1.2 mi WNW 5.8 mph - N/A   Overcast
7:19 AM 21.2 °F 13.6 °F 19.4 °F 93% 29.98 in 4.0 mi West 5.8 mph - N/A   Overcast
7:39 AM 23.0 °F 17.0 °F 17.6 °F 80% 29.99 in 7.0 mi WSW 4.6 mph - N/A   Mostly Cloudy
7:59 AM 21.2 °F 8.9 °F 15.8 °F 80% 29.99 in 4.0 mi West 12.7 mph 19.6 mph N/A   Mostly Cloudy
8:19 AM 21.2 °F 10.9 °F 12.2 °F 68% 30.00 in 10.0 mi West 9.2 mph - N/A   Scattered Clouds
8:39 AM 23.0 °F 11.7 °F 10.4 °F 59% 30.01 in 10.0 mi West 11.5 mph 19.6 mph N/A   Clear
8:59 AM 23.0 °F 10.6 °F 12.2 °F 63% 30.01 in 10.0 mi West 13.8 mph 23.0 mph N/A   Clear
9:19 AM 23.0 °F 11.1 °F 10.4 °F 59% 30.02 in 10.0 mi WNW 12.7 mph 26.5 mph N/A   Clear
9:39 AM 23.0 °F 10.1 °F 12.2 °F 63% 30.02 in 10.0 mi West 15.0 mph 26.5 mph N/A   Clear
9:59 AM 24.8 °F 14.0 °F 12.2 °F 59% 30.03 in 10.0 mi WNW 11.5 mph 23.0 mph N/A   Scattered Clouds
10:19 AM 24.8 °F 11.1 °F 12.2 °F 59% 30.04 in 10.0 mi West 18.4 mph 27.6 mph N/A   Scattered Clouds
10:39 AM 24.8 °F 12.4 °F 12.2 °F 59% 30.05 in 10.0 mi West 15.0 mph 19.6 mph N/A   Scattered Clouds
10:59 AM 24.8 °F 13.4 °F 12.2 °F 59% 30.05 in 10.0 mi West 12.7 mph 25.3 mph N/A   Scattered Clouds
11:19 AM 26.6 °F 15.2 °F 12.2 °F 55% 30.05 in 10.0 mi WSW 13.8 mph 20.7 mph N/A   Scattered Clouds
11:39 AM 26.6 °F 15.2 °F 12.2 °F 55% 30.06 in 10.0 mi West 13.8 mph 24.2 mph N/A   Scattered Clouds
11:59 AM 26.6 °F 14.7 °F 10.4 °F 51% 30.06 in 10.0 mi West 15.0 mph 27.6 mph N/A   Scattered Clouds
12:19 PM 26.6 °F 15.7 °F 10.4 °F 51% 30.05 in 10.0 mi West 12.7 mph 27.6 mph N/A   Scattered Clouds
12:39 PM 26.6 °F 14.7 °F 12.2 °F 55% 30.05 in 10.0 mi West 15.0 mph 25.3 mph N/A   Clear
12:59 PM 26.6 °F 14.3 °F 14.0 °F 59% 30.05 in 7.0 mi West 16.1 mph 24.2 mph N/A   Scattered Clouds
1:19 PM 26.6 °F 19.1 °F 12.2 °F 55% 30.05 in 10.0 mi West 6.9 mph 23.0 mph N/A   Mostly Cloudy
1:39 PM 26.6 °F 13.8 °F 12.2 °F 55% 30.06 in 10.0 mi WNW 17.3 mph 24.2 mph N/A   Scattered Clouds
1:59 PM 26.6 °F 13.1 °F 12.2 °F 55% 30.06 in 7.0 mi West 19.6 mph 27.6 mph N/A   Scattered Clouds
2:19 PM 28.4 °F 19.1 °F 10.4 °F 47% 30.06 in 10.0 mi West 10.4 mph 26.5 mph N/A   Scattered Clouds
2:39 PM 26.6 °F 12.4 °F 10.4 °F 51% 30.07 in 10.0 mi West 21.9 mph 28.8 mph N/A   Scattered Clouds
2:59 PM 26.6 °F 11.1 °F 10.4 °F 51% 30.07 in 10.0 mi West 26.5 mph 32.2 mph N/A   Clear
3:20 PM 26.6 °F 12.7 °F 8.6 °F 47% 30.07 in 10.0 mi West 20.7 mph 31.1 mph N/A   Scattered Clouds
3:40 PM 26.6 °F 13.4 °F 8.6 °F 47% 30.07 in 10.0 mi West 18.4 mph 31.1 mph N/A   Scattered Clouds
4:00 PM 26.6 °F 13.4 °F 8.6 °F 47% 30.08 in 10.0 mi West 18.4 mph 23.0 mph N/A   Clear
4:20 PM 26.6 °F 12.7 °F 10.4 °F 51% 30.09 in 10.0 mi West 20.7 mph 27.6 mph N/A   Clear
4:40 PM 24.8 °F 13.4 °F 12.2 °F 59% 30.10 in 4.0 mi West 12.7 mph 27.6 mph N/A   Scattered Clouds
5:00 PM 23.0 °F 11.7 °F 15.8 °F 74% 30.11 in 5.0 mi West 11.5 mph 17.3 mph N/A   Overcast
5:20 PM 23.0 °F 14.7 °F 12.2 °F 63% 30.12 in 10.0 mi NNW 6.9 mph - N/A   Scattered Clouds
5:40 PM 23.0 °F 15.8 °F 12.2 °F 63% 30.13 in 10.0 mi NW 5.8 mph 24.2 mph N/A   Scattered Clouds
6:00 PM 23.0 °F 9.6 °F 10.4 °F 59% 30.14 in 10.0 mi West 16.1 mph 27.6 mph N/A   Clear
6:20 PM 23.0 °F 13.9 °F 10.4 °F 59% 30.15 in 10.0 mi West 8.1 mph - N/A   Clear
6:40 PM 23.0 °F 15.8 °F 12.2 °F 63% 30.16 in 10.0 mi NW 5.8 mph - N/A   Scattered Clouds
7:00 PM 21.2 °F 13.6 °F 12.2 °F 68% 30.17 in 10.0 mi NW 5.8 mph - N/A   Scattered Clouds
7:20 PM 23.0 °F - 12.2 °F 63% 30.17 in 10.0 mi Calm Calm - N/A   Clear
7:40 PM 23.0 °F - 10.4 °F 59% 30.18 in 10.0 mi Calm Calm - N/A   Clear
8:00 PM 23.0 °F 10.1 °F 10.4 °F 59% 30.18 in 10.0 mi NW 15.0 mph 23.0 mph N/A   Clear
8:20 PM 23.0 °F 13.9 °F 10.4 °F 59% 30.19 in 10.0 mi West 8.1 mph 18.4 mph N/A   Clear
8:40 PM 23.0 °F 11.1 °F 12.2 °F 63% 30.20 in 10.0 mi West 12.7 mph 18.4 mph N/A   Scattered Clouds
9:00 PM 23.0 °F 14.7 °F 12.2 °F 63% 30.21 in 10.0 mi West 6.9 mph - N/A   Scattered Clouds
9:20 PM 23.0 °F 11.1 °F 10.4 °F 59% 30.22 in 10.0 mi West 12.7 mph 19.6 mph N/A   Scattered Clouds
9:40 PM 23.0 °F 14.7 °F 8.6 °F 54% 30.23 in 10.0 mi NW 6.9 mph 21.9 mph N/A   Mostly Cloudy
10:00 PM 23.0 °F 13.1 °F 8.6 °F 54% 30.23 in 10.0 mi West 9.2 mph 19.6 mph N/A   Mostly Cloudy
10:20 PM 23.0 °F 13.9 °F 8.6 °F 54% 30.23 in 10.0 mi NNW 8.1 mph 16.1 mph N/A   Overcast
10:40 PM 23.0 °F 17.0 °F 8.6 °F 54% 30.25 in 10.0 mi NW 4.6 mph - N/A   Overcast
11:00 PM 23.0 °F 17.0 °F 10.4 °F 59% 30.25 in 10.0 mi West 4.6 mph - N/A   Overcast
11:20 PM 23.0 °F 13.1 °F 8.6 °F 54% 30.25 in 10.0 mi West 9.2 mph - N/A   Mostly Cloudy
11:40 PM 23.0 °F 12.4 °F 8.6 °F 54% 30.26 in 10.0 mi West 10.4 mph 19.6 mph N/A   Mostly Cloudy